| Date | Time | Temp. (oF) | Dew Point (oF) | Rel. Hum. (%) | Press. (in.) | Wind Dir. | Wind Speed (mph) | Hourly Rainfall (in.) |
|
|---|---|---|---|---|---|---|---|---|---|
| 1 | 01/15 | 00:00 | 30 | 29 | 99 | 30.31 | NW | 0 | 0.00 |
| 2 | 01/14 | 23:00 | 30 | 29 | 98 | 30.32 | NW | 0 | 0.00 |
| 3 | 01/14 | 22:00 | 30 | 30 | 100 | 30.34 | NW | 0 | 0.00 |
| 4 | 01/14 | 21:00 | 30 | 29 | 99 | 30.37 | NW | 0 | 0.01 |
| 5 | 01/14 | 20:00 | 30 | 29 | 96 | 30.37 | NW | 0 | 0.01 |
| 6 | 01/14 | 19:00 | 30 | 29 | 98 | 30.39 | NW | 0 | 0.01 |
| 7 | 01/14 | 18:00 | 30 | 28 | 95 | 30.39 | NW | 0 | 0.01 |
| 8 | 01/14 | 17:00 | 30 | 27 | 91 | 30.41 | NW | 1 | 0.00 |
| 9 | 01/14 | 16:00 | 30 | 26 | 87 | 30.42 | NW | 4 | 0.00 |
| 10 | 01/14 | 15:00 | 30 | 25 | 82 | 30.45 | NW | 3 | 0.00 |
| 11 | 01/14 | 14:00 | 30 | 23 | 78 | 30.47 | NW | 0 | 0.00 |
| 12 | 01/14 | 13:00 | 31 | 22 | 70 | 30.49 | NW | 4 | 0.00 |
| 13 | 01/14 | 12:00 | 32 | 17 | 55 | 30.54 | NW | 2 | 0.00 |
| 14 | 01/14 | 11:00 | 32 | 17 | 55 | 30.59 | NW | 3 | 0.00 |
| 15 | 01/14 | 10:00 | 30 | 17 | 59 | 30.62 | NW | 1 | 0.00 |
| 16 | 01/14 | 09:00 | 29 | 18 | 64 | 30.62 | NW | 6 | 0.00 |
| 17 | 01/14 | 08:00 | 28 | 18 | 66 | 30.63 | NW | 1 | 0.00 |
| 18 | 01/14 | 07:00 | 28 | 18 | 67 | 30.63 | NW | 2 | 0.00 |
| 19 | 01/14 | 06:00 | 28 | 18 | 66 | 30.65 | NW | 2 | 0.00 |
| 20 | 01/14 | 05:00 | 28 | 17 | 65 | 30.66 | NW | 1 | 0.00 |
| 21 | 01/14 | 04:00 | 28 | 18 | 66 | 30.66 | NW | 1 | 0.00 |
| 22 | 01/14 | 03:00 | 30 | 18 | 61 | 30.67 | NW | 5 | 0.00 |
| 23 | 01/14 | 02:00 | 31 | 17 | 57 | 30.66 | NW | 2 | 0.00 |
| 24 | 01/14 | 01:00 | 32 | 15 | 50 | 30.68 | NW | 3 | 0.00 |